| time (UTC) | temp F | wind direction | speed MPH | gust MPH | rain 1hr in | rain 24hr in | rain mn in | humidity % | barometer mb |
| 20260905110028 | 52 | 181 | 0.0 | 2.0 | 0.00 | 0.02 | 0.00 | 96 | 1018.7 |
| 20260905103032 | 52 | 202 | 0.0 | 1.0 | 0.00 | 0.02 | 0.00 | 96 | 1018.6 |
| 20260905101530 | 53 | 195 | 0.0 | 3.0 | 0.00 | 0.02 | 0.00 | 96 | 1018.6 |
| 20260905100030 | 53 | 180 | 0.0 | 0.0 | 0.00 | 0.02 | 0.00 | 96 | 1018.7 |
| 20260905094606 | 53 | 180 | 0.0 | 0.0 | 0.00 | 0.02 | 0.00 | 96 | 1018.7 |
| 20260905093032 | 53 | 199 | 0.0 | 2.0 | 0.00 | 0.02 | 0.00 | 96 | 1018.7 |
| 20260905090031 | 53 | 202 | 0.0 | 2.0 | 0.00 | 0.02 | 0.00 | 96 | 1018.6 |
| 20260905084606 | 54 | 202 | 0.0 | 2.0 | 0.00 | 0.02 | 0.00 | 95 | 1018.6 |
| 20260905083106 | 53 | 194 | 1.0 | 2.0 | 0.00 | 0.02 | 0.00 | 95 | 1018.5 |
| 20260905081530 | 54 | 180 | 2.0 | 4.0 | 0.00 | 0.02 | 0.00 | 95 | 1018.4 |
| 20260905074531 | 54 | 180 | 0.0 | 1.0 | 0.00 | 0.02 | 0.00 | 95 | 1018.2 |
| 20260905073030 | 54 | 187 | 0.0 | 3.0 | 0.01 | 0.02 | 0.00 | 94 | 1018.1 |
| 20260905070052 | 55 | 202 | 0.0 | 3.0 | 0.01 | 0.02 | 0.00 | 94 | 1017.8 |
| 20260905064608 | 55 | 197 | 0.0 | 3.0 | 0.01 | 0.02 | 0.01 | 94 | 1017.6 |
| 20260905060031 | 55 | 170 | 1.0 | 5.0 | 0.00 | 0.01 | 0.01 | 94 | 1017.7 |
| 20260905054531 | 55 | 161 | 2.0 | 6.0 | 0.00 | 0.01 | 0.01 | 94 | 1017.5 |
| 20260905053031 | 54 | 185 | 2.0 | 4.0 | 0.00 | 0.01 | 0.01 | 94 | 1017.4 |
| 20260905051532 | 54 | 202 | 1.0 | 2.0 | 0.00 | 0.01 | 0.01 | 94 | 1017.5 |
| 20260905050148 | 55 | 202 | 2.0 | 3.0 | 0.00 | 0.01 | 0.01 | 93 | 1017.5 |
| 20260905040041 | 55 | 185 | 1.0 | 3.0 | 0.00 | 0.01 | 0.01 | 91 | 1017.1 |
| 20260905034531 | 55 | 180 | 0.0 | 3.0 | 0.00 | 0.01 | 0.01 | 90 | 1017.0 |
| 20260905033036 | 56 | 133 | 1.0 | 3.0 | 0.00 | 0.01 | 0.01 | 90 | 1016.8 |
| 20260905024531 | 57 | 196 | 2.0 | 4.0 | 0.00 | 0.01 | 0.01 | 88 | 1016.5 |
| 20260905014602 | 61 | 341 | 1.0 | 4.0 | 0.00 | 0.01 | 0.01 | 80 | 1016.0 |
| 20260905013032 | 62 | 360 | 0.0 | 0.0 | 0.00 | 0.01 | 0.01 | 76 | 1015.9 |
| 20260905011529 | 62 | 360 | 1.0 | 3.0 | 0.00 | 0.01 | 0.01 | 75 | 1015.8 |
| 20260905010054 | 63 | 39 | 0.0 | 4.0 | 0.00 | 0.01 | 0.01 | 77 | 1015.8 |
| 20260905004531 | 63 | 56 | 3.0 | 6.0 | 0.00 | 0.01 | 0.01 | 79 | 1015.7 |
| 20260905003033 | 62 | 34 | 2.0 | 5.0 | 0.00 | 0.01 | 0.01 | 81 | 1015.6 |
| 20260905001531 | 62 | 345 | 1.0 | 3.0 | 0.00 | 0.01 | 0.01 | 82 | 1015.6 |
| 20260905000105 | 61 | 202 | 0.0 | 0.0 | 0.00 | 0.01 | 0.01 | 82 | 1015.5 |
| 20260904231531 | 60 | 190 | 0.0 | 4.0 | 0.00 | 0.01 | 0.01 | 79 | 1015.6 |
| 20260904230031 | 64 | 196 | 4.0 | 9.0 | 0.00 | 0.01 | 0.01 | 70 | 1015.6 |
| 20260904221531 | 66 | 197 | 1.0 | 3.0 | 0.00 | 0.01 | 0.01 | 64 | 1015.3 |
| 20260904220032 | 66 | 172 | 0.0 | 3.0 | 0.00 | 0.01 | 0.01 | 65 | 1015.2 |
| 20260904214533 | 64 | 180 | 0.0 | 2.0 | 0.00 | 0.01 | 0.01 | 69 | 1015.1 |
| 20260904211555 | 63 | 181 | 1.0 | 3.0 | 0.00 | 0.02 | 0.01 | 74 | 1015.1 |
| 20260904210103 | 63 | 202 | 0.0 | 1.0 | 0.00 | 0.02 | 0.01 | 71 | 1015.0 |
| 20260904204531 | 63 | 200 | 0.0 | 3.0 | 0.00 | 0.02 | 0.01 | 69 | 1015.0 |
| 20260904203107 | 64 | 156 | 1.0 | 4.0 | 0.00 | 0.02 | 0.01 | 70 | 1015.2 |
| 20260904201529 | 62 | 129 | 1.0 | 4.0 | 0.00 | 0.02 | 0.01 | 72 | 1015.2 |
| 20260904200031 | 61 | 121 | 0.0 | 2.0 | 0.00 | 0.02 | 0.01 | 73 | 1015.4 |
| 20260904193029 | 61 | 82 | 1.0 | 3.0 | 0.00 | 0.02 | 0.01 | 72 | 1015.6 |
| 20260904191531 | 61 | 54 | 0.0 | 3.0 | 0.00 | 0.02 | 0.01 | 73 | 1015.7 |
| 20260904190030 | 60 | 88 | 0.0 | 3.0 | 0.00 | 0.02 | 0.01 | 77 | 1015.8 |
| 20260904184530 | 59 | 31 | 1.0 | 4.0 | 0.00 | 0.02 | 0.01 | 80 | 1015.9 |
| 20260904183031 | 58 | 353 | 0.0 | 3.0 | 0.00 | 0.02 | 0.01 | 83 | 1015.8 |
| 20260904181533 | 56 | 137 | 0.0 | 3.0 | 0.00 | 0.02 | 0.01 | 85 | 1015.8 |
| 20260904180028 | 56 | 112 | 0.0 | 1.0 | 0.00 | 0.02 | 0.01 | 86 | 1015.8 |
| 20260904174530 | 56 | 163 | 0.0 | 2.0 | 0.00 | 0.02 | 0.01 | 87 | 1015.8 |
| 20260904173031 | 56 | 180 | 0.0 | 0.0 | 0.00 | 0.02 | 0.01 | 88 | 1015.8 |
| 20260904171644 | 56 | 180 | 0.0 | 3.0 | 0.00 | 0.02 | 0.01 | 89 | 1015.8 |
| 20260904163032 | 55 | 186 | 0.0 | 2.0 | 0.00 | 0.02 | 0.01 | 94 | 1015.6 |
| 20260904161606 | 54 | 121 | 1.0 | 3.0 | 0.00 | 0.02 | 0.01 | 95 | 1015.6 |
| 20260904160032 | 54 | 136 | 1.0 | 3.0 | 0.00 | 0.02 | 0.01 | 96 | 1015.6 |
| 20260904154604 | 54 | 135 | 0.0 | 1.0 | 0.00 | 0.02 | 0.01 | 97 | 1015.5 |
| 20260904153030 | 53 | 135 | 0.0 | 2.0 | 0.00 | 0.02 | 0.01 | 97 | 1015.4 |
| 20260904151533 | 53 | 182 | 0.0 | 2.0 | 0.00 | 0.02 | 0.01 | 97 | 1015.2 |
| 20260904150145 | 52 | 193 | 0.0 | 3.0 | 0.00 | 0.02 | 0.01 | 97 | 1015.2 |
| 20260904144603 | 52 | 180 | 0.0 | 1.0 | 0.00 | 0.02 | 0.01 | 97 | 1015.1 |
| 20260904141648 | 51 | 180 | 0.0 | 0.0 | 0.01 | 0.02 | 0.01 | 97 | 1014.8 |
| 20260904140144 | 50 | 180 | 0.0 | 0.0 | 0.01 | 0.02 | 0.01 | 97 | 1014.7 |
| 20260904134605 | 50 | 180 | 0.0 | 1.0 | 0.01 | 0.02 | 0.00 | 96 | 1014.5 |
| 20260904133145 | 51 | 180 | 0.0 | 1.0 | 0.00 | 0.01 | 0.00 | 96 | 1014.4 |
| 20260904130030 | 50 | 180 | 0.0 | 2.0 | 0.00 | 0.01 | 0.00 | 96 | 1014.0 |
| 20260904123032 | 50 | 180 | 0.0 | 2.0 | 0.00 | 0.01 | 0.00 | 96 | 1014.0 |
| 20260904121531 | 50 | 180 | 0.0 | 0.0 | 0.00 | 0.01 | 0.00 | 96 | 1013.9 |
| 20260904120144 | 50 | 180 | 0.0 | 2.0 | 0.00 | 0.01 | 0.00 | 96 | 1013.8 |
| 20260904114530 | 51 | 180 | 1.0 | 2.0 | 0.00 | 0.01 | 0.00 | 96 | 1013.6 |
| 20260904113144 | 51 | 180 | 0.0 | 3.0 | 0.00 | 0.01 | 0.00 | 96 | 1013.6 |
| 20260904111530 | 51 | 180 | 0.0 | 0.0 | 0.00 | 0.01 | 0.00 | 96 | 1013.5 |